Overview Statistics Trail Chart Weather Telemetry Raw packets
 

This is the latest recevied weather packets stored in our database for station/object 9A7DI-13. If no packets are shown the sender has not sent any weather packets the latest 10 day(s).

<< 19 20 21 22 23 24 25 >>
Time Temp. Humidity Pressure Rain* Wind** Luminosity Snow
1788372404 23.33° C 57% 1026.2 hPa - - - -
1788371804 23.89° C 55% 1026.1 hPa - - - -
1788371204 25° C 47% 1025.8 hPa - - - -
1788370604 25.56° C 46% 1025.8 hPa - - - -
1788370004 25.56° C 43% 1025.8 hPa - - - -
1788369404 26.11° C 42% 1025.7 hPa - - - -
1788368804 26.67° C 39% 1025.7 hPa - - - -
1788368205 27.22° C 36% 1025.7 hPa - - - -
1788367604 27.78° C 35% 1025.7 hPa - - - -
1788367005 27.78° C 34% 1025.8 hPa - - - -
1788366405 28.33° C 33% 1025.8 hPa - - - -
1788365805 28.89° C 32% 1025.8 hPa - - - -
1788365205 28.89° C 30% 1025.8 hPa - - - -
1788364605 29.44° C 30% 1025.8 hPa - - - -
1788364005 29.44° C 29% 1025.9 hPa - - - -
1788363405 29.44° C 30% 1025.9 hPa - - - -
1788362805 29.44° C 30% 1025.9 hPa - - - -
1788362205 30° C 29% 1025.9 hPa - - - -
1788361605 29.44° C 29% 1026 hPa - - - -
1788361005 29.44° C 30% 1026.2 hPa - - - -
1788360425 30° C 29% 1026.2 hPa - - - -
1788359805 30° C 29% 1026.2 hPa - - - -
1788359205 30° C 28% 1026.3 hPa - - - -
1788358605 30° C 28% 1026.4 hPa - - - -
1788358005 30° C 28% 1026.5 hPa - - - -

* Rain since midnight (hover to see other rain measurements)
** Current wind speed in m/s (hover to see current wind gust speed)